Weather Roundup
Issued by NWS

Home | Current Version | Previous Version | Graphics & Text | Print | Product List | Glossary Off
Versions: 1 2 3 4 5 6 7 8 9 10 11 12 13 14 15 16 17 18 19 20 21 22 23 24 25 26 27 28 29 30 31 32 33 34 35 36 37 38 39 40 41 42 43 44 45 46 47 48 49 50

000
NZUS93 KARX 291659
HRRWXR

CURRENT HOURLY OBSERVATIONS ACROSS
MUCH OF THE UPPER MISSISSIPPI VALLEY
NATIONAL WEATHER SERVICE LA CROSSE WI
1200 PM CDT SAT AUG 29 2015


...SOUTHEAST MINNESOTA...


CITY           SKY/WX    TMP DP  RH WIND       PRES   REMARKS
ROCHESTER      PTSUNNY   67  61  81 CALM      30.08S
ROCHESTER/MAYO FAIR      66  62  86 NE3       30.07F
WINONA         CLOUDY    66  61  82 CALM      30.07R
AUSTIN         PTSUNNY   70  63  78 CALM      30.06F
ALBERT LEA     CLOUDY    64  63  94 E5        30.07S
DODGE CENTER   PTSUNNY   66  61  82 CALM      30.07F
PRESTON        PTSUNNY   64  59  83 E3        30.07F
OWATONNA       MOSUNNY   66  61  82 CALM      30.07F
FARIBAULT      PTSUNNY   64  61  88 CALM      30.08S
$$

...ELSEWHERE IN MINNESOTA...


CITY           SKY/WX    TMP DP  RH WIND       PRES   REMARKS
MINNEAPOLIS    CLOUDY    63  59  87 SE5       30.07F
INTNL FALLS    NOT AVBL
DULUTH         CLOUDY    70  58  65 SW9       30.04S
RED WING       CLOUDY    64  59  82 CALM      30.06S
REDWOOD FALLS  MOSUNNY   64  59  83 S6        30.06F
MANKATO        CLOUDY    61  57  88 S3        30.08S
WORTHINGTON    CLOUDY    63  57  82 S3        30.10R
FAIRMONT       CLOUDY    61  55  82 CALM      30.08S
$$

...SOUTHWEST WISCONSIN...


CITY           SKY/WX    TMP DP  RH WIND       PRES   REMARKS
LA CROSSE      CLOUDY    68  61  78 VRB7      30.05S
PRAIRIE DU CHI CLOUDY    66  62  86 CALM      30.03S
BOSCOBEL       CLOUDY    69  64  84 VRB5      30.03S
LONE ROCK      CLOUDY    67  62  84 E5        30.03F
PLATTEVILLE    CLOUDY    69  66  90 N3        30.02S
FORT MC COY    CLOUDY    65  59  79 E5        30.06S
VIROQUA        PTSUNNY   65  64  94 E5        30.05S
WIS DELLS      CLOUDY    63  61  94 NE5       30.05S
$$

...ELSEWHERE IN WISCONSIN...


CITY           SKY/WX    TMP DP  RH WIND       PRES   REMARKS
MILWAUKEE      CLOUDY    63  61  93 SE5       30.05S
MADISON        CLOUDY    65  62  90 S3        30.03S
GREEN BAY      CLOUDY    65  61  87 E3        30.08S FOG
EAU CLAIRE     CLOUDY    63  58  83 CALM      30.07S
BLACK RVR FLS  CLOUDY    66  63  89 CALM      30.05S
MEDFORD        CLOUDY    61  59  94 CALM      30.09S
WAUSAU         CLOUDY    64  59  83 CALM      30.07S
WIS RAPIDS     NOT AVBL
MARSHFIELD     CLOUDY    65  58  78 CALM      30.07S
RICE LAKE      CLOUDY    64  59  82 CALM      30.09F
$$

...NORTHEAST IOWA...


CITY           SKY/WX    TMP DP  RH WIND       PRES   REMARKS
DECORAH        PTSUNNY   64  63  94 N8        30.05R
MASON CITY     CLOUDY    67  62  84 NE8       30.08S
CHARLES CITY   PTSUNNY   66  64  94 VRB6      30.06F
OELWEIN          N/A    N/A N/A N/A NE8       30.05R
$$

...ELSEWHERE IN IOWA...


CITY           SKY/WX    TMP DP  RH WIND       PRES   REMARKS
DES MOINES     CLOUDY    69  62  78 NE7       30.04R
IOWA CITY      CLOUDY    71  67  87 NE8       30.02R
FORT DODGE     CLOUDY    63  59  88 N7        30.08S
$$

...NORTHERN ILLINOIS...


CITY           SKY/WX    TMP DP  RH WIND       PRES   REMARKS
CHICAGO-OHARE  LGT RAIN  67  64  90 SE8       30.04S
CHICAGO-MIDWAY CLOUDY    71  63  75 S7        30.04S
MOLINE         CLOUDY    69  66  90 CALM      30.01S FOG
ROCKFORD       CLOUDY    68  64  87 SE9       30.03F
PEORIA         MOSUNNY   81  65  58 S6        30.02S
$$

NOTE: "FAIR" INDICATES FEW OR NO CLOUDS BELOW 12,000 FEET WITH NO
SIGNIFICANT WEATHER AND/OR OBSTRUCTIONS TO VISIBILITY. WIND
SPEEDS ARE IN MILES-PER-HOUR.



USA.gov is the U.S. government's official web portal to all federal, state and local government web resources and services.